Dewpoint
33 35 35 34 34 34 34 38 50 59 63 63 63 63 62 62 61 61 58 57 56 53 51 47 41 36 32 29 26 26 24 22 24 24 24 27 24 26 25 25 23 24 23
30 31 32 34 35 35 34 34 40 54 60 63 63 63 62 62 61 61 59 57 55 52 50 45 40 34 30 28 26 27 26 23 22 21 24 21 21 22 21 26 24 21 22
28 29 30 31 32 33 35 37 37 43 57 61 62 60 59 59 60 60 60 57 54 53 51 44 40 33 31 28 27 27 27 25 21 19 21 22 21 18 19 23 19 17 19
28 28 28 29 30 31 32 34 37 39 49 58 60 60 58 59 60 60 58 53 52 52 48 42 38 36 32 28 28 29 28 26 22 19 18 17 16 12 9 17 18 17 16
26 28 28 29 29 29 30 31 34 38 41 48 57 60 58 59 57 54 54 51 50 50 47 41 38 37 33 33 31 30 28 26 23 23 19 17 18 17 13 10 14 17 16
23 25 27 34 37 37 35 34 33 36 40 43 51 57 59 56 54 52 50 48 47 47 43 42 39 37 36 33 31 28 27 24 22 21 17 15 14 14 15 14 14 14 15
24 30 35 37 38 38 38 39 38 38 38 41 47 55 57 55 54 52 50 47 45 43 41 40 39 37 35 32 29 25 22 20 18 17 17 17 16 16 15 14 15 15 18
25 34 37 38 37 36 36 39 40 40 39 39 45 55 56 55 53 52 50 47 45 43 41 39 38 35 33 31 29 27 25 23 21 19 19 19 19 18 17 17 16 16 18
28 35 36 37 36 37 37 40 42 42 40 40 51 55 54 53 51 48 47 45 43 41 38 38 36 32 29 28 27 26 24 22 21 21 21 20 21 21 21 21 20 18 15
34 35 37 37 38 39 39 41 43 44 42 45 54 52 52 51 49 46 45 43 40 39 36 33 30 28 27 27 25 23 21 20 20 21 19 19 20 20 21 20 21 21 19
32 31 34 38 39 39 38 41 45 46 46 53 51 49 49 47 46 45 43 41 38 36 34 30 27 27 26 25 23 20 17 16 17 18 17 19 20 20 20 20 20 19 19
39 39 36 37 39 38 40 44 48 47 50 49 47 46 44 43 42 41 39 38 34 32 30 27 25 25 25 23 22 22 19 15 16 18 19 19 20 19 20 20 19 19 19
40 39 35 38 39 41 44 47 47 48 46 44 43 42 41 41 39 37 34 30 29 25 23 23 21 19 19 17 15 15 16 17 18 19 19 19 20 20 20 20 19 19 20
40 37 37 40 42 45 41 40 38 38 37 39 39 38 37 36 34 30 26 24 24 25 26 26 25 26 27 26 24 24 25 27 25 22 22 21 20 19 19 19 19 20 21
40 41 41 42 42 39 36 35 34 34 35 34 32 30 28 28 26 25 25 25 26 27 27 27 28 27 28 29 31 32 30 24 21 21 20 20 20 24 22 21 21 22 21
41 40 41 40 36 34 32 33 34 36 37 34 31 30 30 30 25 24 26 27 27 27 27 27 28 29 28 31 30 26 24 21 20 20 20 19 21 20 22 22 21 21 22
36 41 40 33 31 29 29 30 31 31 29 28 28 27 26 27 28 30 31 32 32 31 31 30 30 31 33 32 30 29 23 20 19 18 18 18 19 22 20 22 22 22 24
36 40 32 26 25 26 26 28 31 31 31 30 29 30 29 31 32 32 32 32 32 32 32 31 29 26 27 26 24 25 20 19 18 19 19 20 21 21 22 22 22 23 23
24 25 25 24 24 25 27 27 28 30 31 31 31 32 33 33 33 33 33 33 32 31 31 27 25 22 24 22 22 22 20 19 19 20 21 23 22 23 22 22 23 23 23
26 26 27 28 29 29 29 29 30 30 31 33 34 35 35 34 34 33 33 32 30 25 19 15 13 19 18 21 19 22 20 18 18 20 21 22 22 22 22 24 23 20 20
29 30 31 31 33 33 31 32 33 32 34 36 35 35 35 34 33 31 29 24 16 13 12 12 12 13 11 13 16 17 18 19 20 20 20 20 22 24 24 22 20 19 20
33 33 34 34 35 34 33 32 31 32 33 33 32 30 30 30 25 18 14 12 11 11 10 10 11 12 12 20 20 22 21 22 21 21 21 21 25 23 21 19 19 19 20
35 35 34 34 35 35 34 31 31 32 32 31 27 20 18 17 16 13 12 11 11 9 9 10 11 12 13 14 18 21 22 22 21 22 23 25 22 19 17 18 18 19 16
36 35 34 33 32 33 33 32 32 29 22 18 18 17 15 15 14 14 12 10 10 11 11 11 10 11 14 15 18 20 21 22 22 23 22 18 16 17 17 17 16 16 17
24 22 22 23 25 23 25 25 22 18 17 17 17 18 17 14 14 14 14 13 12 8 9 12 13 12 13 15 19 20 20 21 22 18 14 14 15 15 15 15 16 16 17
16 15 14 14 14 14 15 16 16 16 16 16 15 15 14 14 14 15 17 18 17 17 16 18 15 14 16 18 20 20 20 21 19 15 14 15 15 15 15 16 16 17 18
Wind_Speed
25 18 20 18 20 23 21 18 22 21 23 19 19 16 22 18 16 17 21 21 19 21 21 17 19 18 19 18 15 8 8 3 2 4 2 2 1 2 3 4 5 5 6
20 19 21 21 18 18 19 22 19 23 24 23 23 16 20 16 16 17 17 20 23 22 22 22 20 19 17 17 17 13 7 3 3 4 3 3 2 2 1 2 4 2 2
28 26 24 23 22 22 21 18 17 22 24 25 16 8 9 8 11 14 15 17 21 22 20 21 20 21 18 21 19 15 12 9 2 2 3 3 5 1 2 0 3 3 3
23 24 23 22 24 22 19 16 16 17 21 22 20 25 25 18 18 21 17 10 14 22 19 21 21 21 19 20 16 12 8 8 9 4 4 4 3 4 2 1 2 3 2
20 22 19 17 17 12 14 14 14 14 18 19 23 23 24 21 15 14 19 19 13 13 17 19 20 20 17 17 17 15 11 6 9 6 4 2 3 3 3 4 3 3 5
11 13 6 3 6 6 4 1 8 14 14 19 22 28 25 19 20 18 20 18 15 14 14 16 17 16 17 18 15 14 13 10 9 7 6 5 4 4 5 6 5 7 6
6 6 7 6 3 2 4 3 3 10 12 14 19 25 23 28 29 28 24 24 21 18 19 17 17 17 17 16 15 14 12 11 12 10 7 5 5 4 3 3 3 4 3
7 6 5 6 3 1 5 8 11 14 16 17 19 20 25 23 20 24 23 21 20 18 17 16 16 16 18 16 15 12 10 12 12 11 7 7 5 4 3 3 2 4 3
6 5 6 5 3 3 6 8 11 15 19 21 17 19 20 22 24 21 19 18 17 17 18 18 17 16 17 18 16 14 12 10 9 10 9 6 5 5 5 4 5 5 4
12 14 15 11 8 7 8 10 11 15 19 18 17 18 19 19 21 22 23 22 19 20 19 19 18 17 16 15 15 13 11 11 8 7 8 5 4 4 4 3 4 6 8
20 22 22 18 13 8 8 12 15 16 14 14 18 20 20 17 17 20 22 21 21 21 22 20 19 17 15 13 14 11 9 9 9 7 8 5 5 5 4 4 5 7 7
25 27 23 20 15 7 9 12 17 16 10 13 17 18 19 18 16 17 19 20 19 18 18 19 19 17 14 12 13 13 9 6 6 4 5 6 4 5 6 6 7 8 9
23 26 15 19 12 6 7 10 8 3 9 13 16 18 18 20 17 18 19 19 21 19 19 21 21 19 16 12 11 8 8 5 2 1 5 3 5 7 6 6 9 10 11
17 19 13 11 8 4 5 6 5 5 8 12 16 16 16 18 18 20 21 22 21 22 21 20 20 17 15 15 11 7 8 6 2 2 2 4 6 7 7 8 11 11 11
18 18 4 2 1 4 7 10 10 10 10 9 15 19 20 22 20 21 22 22 23 23 23 23 19 14 12 11 12 8 3 3 3 2 3 5 6 8 9 8 8 9 11
13 12 6 2 2 3 9 12 11 13 13 13 16 21 22 22 21 23 23 24 24 23 22 20 18 13 9 12 9 6 2 1 2 4 6 7 9 9 11 12 15 14 12
17 13 3 3 4 7 8 14 16 14 17 17 19 20 21 25 22 24 23 22 21 20 19 16 16 13 11 10 8 5 2 2 2 4 5 6 6 9 10 12 15 16 17
8 8 8 10 10 12 13 17 18 18 21 20 18 19 21 24 22 23 23 20 18 16 15 13 9 11 9 10 8 6 4 3 3 3 3 6 9 10 13 13 14 12 12
12 10 12 15 16 16 15 20 20 19 20 19 18 19 21 21 20 23 18 14 19 15 11 10 11 9 8 8 6 4 2 1 4 4 6 8 10 13 17 15 14 12 13
12 13 13 14 17 14 16 20 18 17 17 16 17 17 17 19 19 17 16 9 12 10 8 10 9 9 7 6 4 6 4 4 6 6 8 10 13 16 17 16 12 12 15
11 12 13 14 12 11 13 16 16 17 14 15 17 15 13 16 17 15 13 13 11 10 10 9 6 5 3 2 2 5 3 5 5 9 11 11 16 17 19 20 13 15 18
10 12 14 14 11 12 15 16 18 13 16 15 17 16 14 14 11 13 14 13 12 10 8 10 8 7 6 7 6 6 8 10 9 11 12 13 16 17 19 16 17 19 17
8 10 12 14 12 11 13 17 13 16 17 15 12 13 14 13 12 15 13 11 9 9 7 7 5 3 5 5 7 8 10 11 11 10 13 14 14 15 13 16 16 14 12
10 10 11 12 12 11 12 16 14 14 13 13 13 15 16 14 12 11 10 10 8 8 6 5 3 3 5 6 6 6 8 12 12 12 5 9 11 12 12 12 11 9 10
10 11 12 13 13 13 13 11 11 11 14 14 15 15 12 12 12 10 9 10 5 5 5 4 3 3 5 5 7 10 11 10 8 7 8 9 10 11 10 10 10 11 11
11 13 12 14 13 13 12 11 12 13 16 17 14 13 12 10 10 10 9 8 7 7 6 4 0 2 4 8 10 12 12 11 11 6 7 10 10 11 11 12 14 12 14
Wind_Direction
262 263 261 252 246 253 257 220 215 199 195 191 189 187 195 198 195 193 195 186 179 175 173 170 167 168 167 168 159 139 146 120 115 127 64 29 7 179 191 182 189 193 181
260 253 249 252 249 248 246 245 221 216 196 196 196 195 192 200 194 189 197 188 177 177 175 171 172 172 163 164 166 162 150 128 147 159 128 188 243 290 350 229 194 164 163
256 259 255 251 246 242 242 242 232 218 209 204 191 122 126 107 163 189 191 190 180 174 179 172 168 170 165 175 178 176 167 161 150 143 153 158 220 226 359 45 136 132 128
249 252 251 249 249 247 242 245 245 231 217 201 186 199 202 192 201 195 185 183 176 174 174 169 168 169 168 171 173 171 176 150 164 134 90 67 121 189 241 258 213 95 140
257 261 258 253 257 266 266 266 259 243 226 216 193 201 214 200 175 164 168 172 169 173 171 168 164 165 165 164 167 167 176 176 164 152 155 142 107 117 179 247 253 290 267
265 252 251 111 111 97 113 238 273 281 260 221 204 202 207 182 169 165 170 166 164 161 168 165 162 158 159 158 164 161 169 171 155 156 155 167 165 193 190 229 258 260 290
165 152 160 159 148 31 7 353 318 292 296 260 221 202 191 183 183 177 172 167 170 173 171 164 160 156 149 147 145 149 154 154 152 155 157 147 157 148 152 182 250 273 299
301 283 202 184 177 24 348 334 320 307 289 265 240 208 185 184 181 177 172 176 175 170 156 153 152 152 146 144 142 145 151 156 143 153 151 142 142 136 156 178 193 298 277
278 229 264 262 266 315 318 310 305 301 285 266 222 197 183 170 172 170 160 154 151 151 152 151 152 155 146 145 147 148 143 154 147 149 147 146 151 143 152 161 176 193 276
329 305 282 257 264 287 307 311 310 294 288 257 199 179 175 177 165 155 155 154 151 153 153 154 149 146 143 142 144 143 148 145 156 146 145 147 152 156 160 180 201 206 231
296 292 275 259 257 270 304 318 310 307 285 205 170 166 164 159 153 155 149 152 151 156 160 154 145 139 131 130 132 128 141 153 150 150 164 175 174 184 182 201 213 237 232
308 300 288 255 242 279 317 314 308 299 230 184 156 151 140 138 143 145 142 147 147 146 145 137 127 119 115 121 127 140 162 161 169 160 194 178 197 209 207 223 243 250 254
291 293 268 252 254 283 304 317 328 256 160 144 138 137 136 135 139 134 132 126 130 128 127 120 114 116 116 114 106 112 133 126 112 242 268 268 229 246 251 250 258 258 258
325 301 254 243 281 355 6 24 40 75 102 128 130 128 128 128 131 130 124 122 123 121 113 109 107 108 116 112 110 112 80 64 317 257 292 282 254 254 260 258 259 265 272
328 348 31 30 340 67 60 59 63 67 85 106 113 114 108 108 111 112 112 111 110 104 104 99 89 94 98 109 115 98 160 175 255 313 323 298 275 260 266 266 269 271 279
295 322 11 58 67 99 98 94 81 82 93 100 99 101 103 101 109 103 105 102 101 103 104 113 121 123 118 121 119 121 127 145 350 322 326 316 308 306 302 299 298 292 288
284 281 308 139 105 91 92 88 84 84 85 88 92 95 105 100 98 98 94 92 95 99 102 106 120 125 120 127 128 148 111 65 353 340 332 340 342 331 313 300 297 295 297
309 233 154 112 93 92 86 86 81 80 80 78 84 94 96 98 97 93 96 99 103 108 119 130 146 145 149 152 131 119 83 46 349 323 337 327 318 321 312 301 294 285 281
25 76 98 99 89 87 90 91 90 91 92 93 97 99 102 102 104 106 103 110 114 120 131 144 145 158 143 140 134 134 115 326 326 324 310 314 322 315 311 308 305 303 295
45 67 74 78 85 95 105 104 109 108 106 110 104 98 102 109 109 110 117 113 108 144 159 141 143 142 158 170 182 191 196 294 307 314 327 332 322 315 310 316 321 317 305
63 71 78 86 90 96 102 96 91 85 81 87 93 93 96 105 111 114 125 133 141 139 135 125 106 117 150 220 269 333 212 286 336 333 328 318 317 314 321 322 330 307 300
70 80 82 81 80 83 92 89 85 84 89 84 88 100 103 106 121 130 119 120 131 124 117 116 99 79 49 32 22 13 347 343 339 319 309 300 308 327 324 321 310 310 322
103 92 94 90 86 90 105 99 94 100 102 107 121 103 96 102 111 115 116 115 121 121 106 107 105 64 27 17 5 0 350 334 322 305 303 331 328 324 322 311 318 323 319
115 109 106 95 90 83 94 107 112 112 114 113 106 107 111 106 98 98 108 116 118 110 107 105 94 37 14 0 343 328 320 308 305 311 333 331 331 324 317 316 310 305 307
108 105 108 108 111 111 112 123 133 122 110 112 111 107 108 115 110 101 105 100 94 121 118 105 88 43 7 328 332 334 322 314 326 4 355 337 328 323 320 318 315 316 314
116 113 114 114 116 115 116 118 122 126 125 125 125 128 127 121 116 113 94 78 86 78 84 125 165 281 288 338 338 330 332 346 339 354 331 320 317 315 316 318 317 316 313